Zurück zum Katalog

CZ-6A DEB

AktivPO
NORAD 61350·DEBRIS·🇨🇳 China

Gestartet Aug 6, 2024 von Taiyuan Satellite Launch Center

Loading…

Nächste Überflüge (nächste 24 Stunden)

TLE

AktuellSource: Space-Track

Epoche: Sep 13, 2026, 01:18 UTC

1 61350U 24140VP  26256.05458722  .00002066  00000-0  78334-3 0  9992
2 61350  89.1149 274.4711 0075217 299.8715  59.5020 14.29290776105484

Verfolge CZ-6A DEB in Echtzeit mit AllMySat

Download on the App Store